Location: Writing-on-Stone Provincial Park
(49.0825°N, 111.6163°W)
Time: 00:20:45
(UTC-06:00)

Daily predictions for brighter satellites

Satellite Brightness Start Highest point End
(mag) Time Altitude Azimuth Time Altitude Azimuth Time Altitude Azimuth
Cosmos 2297 Rocket 4.1 00:23:14 10° NNW 00:26:33 23° NNE 00:26:33 23° NNE
Terra 4.4 00:30:49 16° NW 00:30:49 16° NW 00:32:09 10° NW
Cosmos 2369 Rocket 4.0 00:45:46 27° N 00:45:46 27° N 00:48:33 10° NNE
Cosmos 2227 Rocket 4.0 00:48:10 10° NNW 00:51:04 27° N 00:51:04 27° N
ATLAS 3B R/B 4.3 00:58:26 26° NE 00:58:26 26° NE 01:01:16 10° NE
USA 215 4.1 00:49:14 10° ENE 00:55:26 46° N 01:01:36 10° WNW
CZ-4C R/B 4.1 01:11:16 27° NNE 01:11:16 27° NNE 01:14:16 10° NE
Cosmos 1943 Rocket 4.1 01:28:43 25° N 01:28:43 25° N 01:31:23 10° NNE
ATLAS 5 CENTAUR R/B 4.3 01:29:04 21° NNW 01:29:04 21° NNW 01:33:05 10° NE
Cosmos 2297 Rocket 4.4 02:06:52 10° NNW 02:08:21 19° NNW 02:08:21 19° NNW
SL-16 R/B 4.2 02:16:20 25° ENE 02:17:07 26° NE 02:22:06 10° N
COSMOS 2455 4.2 02:34:48 35° NE 02:34:48 35° NE 02:38:10 10° NE
USA 215 3.9 02:31:30 10° E 02:37:48 51° NNE 02:44:05 10° WNW
Cosmos 1697 Rocket 4.3 02:43:37 29° NE 02:43:37 29° NE 02:46:30 10° NE
ATLAS 3B R/B 3.5 02:45:39 48° NNW 02:45:39 48° NNW 02:52:05 10° NE
CZ-2D R/B 4.2 02:49:53 10° NE 02:53:19 21° E 02:53:19 21° E
CZ-4C R/B 4.2 02:56:24 23° NW 02:58:00 25° NNW 03:03:26 10° NE
Resurs 1-4 Rocket 4.1 02:54:30 10° NE 02:57:39 21° ENE 02:57:39 21° ENE
Cosmos 1980 Rocket 3.7 03:01:00 31° ENE 03:01:00 31° ENE 03:04:20 10° NE
NOSS 3-2 (A) 4.0 03:12:41 57° NNE 03:12:41 57° NNE 03:18:11 10° NE
Cosmos 2263 Rocket 3.6 03:06:39 10° NNW 03:11:46 35° NE 03:12:42 33° ENE
USA 238 DEB 4.5 03:29:11 42° NW 03:29:40 42° NNW 03:36:20 10° NE
USA 238 4.5 03:29:17 42° NW 03:29:45 43° NNW 03:36:26 10° NE
Cosmos 1553 Rocket 4.2 03:42:43 66° NNW 03:42:43 66° NNW 03:48:16 10° N
Meteor 1-11 Rocket 4.4 03:36:36 10° N 03:40:53 51° N 03:40:53 51° N
Lacrosse 4 Rocket 3.8 03:42:43 10° N 03:45:56 21° NE 03:49:11 10° E
Meteor 2-11 Rocket 4.5 03:49:50 75° NE 03:49:50 75° NE 03:55:32 10° NNE
S3M 4.2 03:52:12 59° NNW 03:52:12 59° NNW 03:57:19 10° N
ADEOS 4.1 03:46:43 10° NNE 03:51:06 55° ENE 03:51:06 55° ENE
Cosmos 2315 Rocket 4.5 03:54:52 48° SE 03:55:54 54° E 04:01:56 10° NNE
Meteor 1-27 Rocket 3.9 03:57:41 76° ENE 03:57:41 76° ENE 04:03:16 10° NNE
NOSS 3-2 (C) 3.9 03:58:56 54° NW 03:59:08 54° NW 04:05:55 10° NE
Cosmos 44 4.2 04:01:33 44° NNE 04:01:33 44° NNE 04:04:51 10° NE
SL-16 R/B 2.8 04:01:24 58° NW 04:01:24 58° NW 04:06:29 10° NNW
Gblst 52 Del rocket 4.3 04:06:18 74° ENE 04:06:18 74° ENE 04:11:51 10° ESE
Cosmos 968 Rocket 4.2 04:00:46 10° NNW 04:04:21 45° N 04:04:21 45° N
Cosmos 1992 Rocket 4.2 04:08:37 67° NE 04:08:37 67° NE 04:13:13 10° NNE
Cosmos 44 Rocket 4.2 04:09:51 42° N 04:09:51 42° N 04:13:35 10° NNE
Cosmos 2322 Rocket 2.5 04:09:55 57° ESE 04:10:03 57° ESE 04:15:33 10° NE
Cosmos 1709 Rocket 3.8 04:05:35 10° N 04:11:50 88° W 04:12:10 81° S
Spot 4 Rocket 4.3 04:06:50 10° NNE 04:11:11 63° N 04:11:11 63° N
SL-16 R/B 2.4 04:13:44 59° SE 04:14:01 60° ESE 04:19:37 10° NE
ADEOS Rocket 2.8 04:10:13 10° NNE 04:15:52 71° ESE 04:16:16 68° SE
CENTAUR R/B 2.4 04:17:17 76° SSW 04:17:53 88° SE 04:25:00 10° NE
Cosmos 1461 4.3 04:20:07 33° NNE 04:20:07 33° NNE 04:22:29 10° NNE
COSMOS 2455 4.2 04:17:55 26° NW 04:18:46 27° NW 04:23:52 10° NNE
USA 215 3.1 04:13:59 10° ESE 04:20:35 87° SSW 04:27:11 10° WNW
MOZ.5/SAFIR/RUBIN 5/SL-8 4.1 04:21:30 60° N 04:21:30 60° N 04:25:22 10° N
Orbus 7S? 4.4 04:22:34 67° SW 04:23:29 85° SE 04:27:45 10° ENE
ARIANE 5 R/B 2.6 04:19:52 10° NNE 04:24:32 70° NNW 04:24:32 70° NNW
Cosmos 1697 Rocket 3.7 04:25:21 34° NW 04:25:21 34° NW 04:30:22 10° NNE
SL-8 R/B 4.0 04:27:37 59° E 04:27:37 59° E 04:31:33 10° E
Cosmos 883 Rocket 4.4 04:28:05 67° WSW 04:28:32 70° W 04:34:48 10° N
Celestis-02/Orion 38 4.4 04:23:28 10° NNE 04:28:29 78° NW 04:28:29 78° NW
COBE Rocket 4.1 04:24:47 10° NNE 04:29:54 73° ESE 04:30:26 66° SSE
Cosmos 1844 Rocket 4.3 04:24:57 10° NNW 04:30:02 33° NE 04:35:03 10° ESE
Cosmos 1544 Rocket 4.5 04:27:55 10° N 04:32:15 47° ENE 04:34:09 29° SE
CZ-2D R/B 2.1 04:29:06 10° N 04:34:34 66° WNW 04:34:39 66° WNW
ATLAS 3B R/B 4.4 04:32:52 14° WNW 04:37:37 26° N 04:43:18 10° NE
Resurs 1-4 Rocket 2.2 04:33:39 10° N 04:38:45 59° WNW 04:38:45 59° WNW
Cosmos 1812 3.6 04:40:07 45° E 04:40:12 45° E 04:43:55 10° NNE
Cosmos 2360 Rocket 3.1 04:39:41 27° SSE 04:42:08 42° ESE 04:47:26 10° NE
Cosmos 1980 Rocket 2.9 04:42:46 38° WNW 04:43:05 38° NW 04:48:23 10° NNE
Okean O Rocket 3.2 04:40:31 10° NNE 04:44:31 31° E 04:47:17 17° SSE
IRS-1D 3.8 04:41:23 10° N 04:45:47 47° NW 04:45:47 47° NW
Cosmos 1340 4.2 04:52:57 24° SE 04:54:28 34° E 04:57:54 10° NNE
UNKNOWN OBJECT B 3.5 04:51:22 10° N 04:54:00 41° NNW 04:54:00 41° NNW
Cosmos 2263 Rocket 2.8 04:50:32 10° NW 04:54:17 37° WNW 04:54:17 37° WNW
Okean 3 4.2 04:57:15 41° NW 04:57:15 41° NW 05:00:32 10° N
Cosmos 2184 Rocket 3.9 04:52:57 10° N 04:59:11 89° WSW 05:05:26 10° S
Meteor 1-12 Rocket 4.3 04:53:55 10° N 04:59:36 79° ENE 05:05:17 10° SSE
Cosmos 1378 Rocket 4.2 05:00:38 39° NW 05:00:38 39° NW 05:04:01 10° N
Cosmos 1777 Rocket 3.9 04:54:35 10° NNW 04:59:54 77° WSW 05:05:11 10° SSE
Meteor 1-5 Rocket 4.5 04:55:38 10° NNW 05:00:02 42° WNW 05:00:02 42° WNW
ATLAS 5 CENTAUR R/B 3.6 04:56:22 10° NW 05:01:45 40° NE 05:07:38 10° ESE
BREEZE M DEB (TANK) 4.2 04:42:24 10° W 05:02:12 88° SSW 05:07:10 10° ESE
MOS 1-B 4.3 05:00:07 10° NNE 05:05:59 88° ESE 05:09:06 29° SSW
Cosmos 1455 Rocket 3.0 05:01:52 10° N 05:06:17 85° E 05:09:09 22° SSE
ADEOS II 3.0 05:01:15 10° NNE 05:06:20 46° E 05:11:22 10° S
Meteor 1-18 Rocket 4.3 05:04:42 24° S 05:08:07 76° E 05:13:44 10° NNE
MOS 1 Rocket 3.2 05:05:46 10° NNE 05:10:39 86° ESE 05:12:33 36° S
EO 1 Del DPAF 3.4 05:09:55 10° SSE 05:13:46 73° ENE 05:17:38 10° N
Cosmos 2322 4.0 05:11:52 24° S 05:15:21 65° ESE 05:21:03 10° NNE
Cosmos 1975 Rocket 3.2 05:15:29 49° W 05:15:38 50° WNW 05:19:53 10° N
Okean 1 3.4 05:15:49 34° S 05:17:30 77° E 05:21:35 10° NNE
Cosmos 1975 2.7 05:20:13 10° NNW 05:24:17 68° W 05:26:22 27° S
Lacrosse 4 Rocket 1.3 05:20:54 10° NW 05:25:01 64° WSW 05:29:14 10° SSE
Cosmos 1238 Rocket 3.9 05:25:29 10° SSE 05:28:10 31° E 05:30:51 10° NNE
Tiangong 2 2.9 05:31:20 20° SSE 05:31:20 20° SSE 05:33:01 10° SE
Cosmos 1500 3.2 05:26:59 10° NNW 05:30:46 55° W 05:31:56 38° SSW
Cosmos 1844 4.1 05:26:35 10° NNW 05:32:23 67° ENE 05:38:04 10° SE
Cosmos 2154 Rocket 4.0 05:26:36 10° N 05:32:50 89° ENE 05:39:03 10° S
Cosmos 1536 Rocket 3.6 05:31:52 16° S 05:35:22 88° ESE 05:39:54 10° N
CZ-4B DEB 4.4 05:30:29 10° NNE 05:36:05 77° ESE 05:41:39 10° S
PSLV R/B 3.7 05:34:12 10° N 05:37:54 61° WNW 05:39:17 35° SW
CZ-4B R/B 3.3 05:34:34 10° NNE 05:40:17 82° ESE 05:45:53 10° SSW
Cosmos 1867 4.1 05:37:31 10° NW 05:42:57 61° NE 05:48:20 10° SE
IRAS Rocket 4.3 05:38:16 10° NNE 05:43:49 79° ESE 05:49:23 10° SSW
SL-16 R/B 4.3 05:46:29 12° WNW 05:46:29 12° WNW 05:47:44 10° WNW
PSLV R/B 3.5 05:42:56 10° NNE 05:47:18 89° WNW 05:51:40 10° SSW
ERS-2 3.0 05:50:06 10° NNE 05:53:44 50° ESE 05:57:20 10° S
Cosmos 2322 Rocket 3.2 05:51:44 21° W 05:54:26 30° NW 05:59:23 10° NNE
ERBS 4.3 05:52:34 10° NW 05:55:35 27° NNE 05:58:37 10° ENE
SL-8 Rocket 4.4 05:50:23 10° N 05:56:37 66° ENE 06:02:45 10° SSE
Cosmos 2181 Rocket 4.4 05:51:12 10° S 05:57:21 68° E 06:03:38 10° NNE
SL-16 R/B 3.2 05:55:36 19° W 05:58:31 30° NW 06:03:29 10° NNE
Cosmos 2237 4.2 05:53:25 11° SSW 05:58:55 89° WNW 06:04:42 10° NNE
ADEOS Rocket 4.1 05:56:43 10° N 06:00:51 21° NW 06:03:13 16° W
Nadezhda 1 Rocket 4.1 05:55:48 10° SSW 06:01:45 55° WNW 06:07:43 10° N
CZ-2C R/B 4.0 05:57:58 10° S 06:02:20 44° W 06:06:41 10° NNW
COSMOS 2428 2.8 05:57:03 10° SSW 06:02:44 80° ESE 06:08:27 10° NNE
ARIANE 5 R/B 4.4 06:00:44 10° NNW 06:03:18 14° NW 06:04:54 12° WNW
USA 215 4.0 05:58:29 10° S 06:04:09 31° SW 06:09:51 10° WNW
Genesis I 4.4 06:02:41 19° W 06:04:35 28° NW 06:08:03 10° NNE
Thor Agena Rocket 3.6 06:01:02 10° SSE 06:06:05 79° ENE 06:11:09 10° NNW
Meteor 2-9 Rocket 4.3 06:00:23 10° N 06:06:11 84° E 06:11:45 10° SSE
Cosmos 2150 Rocket 4.3 06:02:40 10° NNW 06:07:57 76° ENE 06:13:17 10° SSE
SL-8 R/B 3.7 06:05:35 17° W 06:09:16 73° SSW 06:14:03 10° ESE
Cosmos 2219 Rocket 2.9 06:03:54 10° S 06:09:19 54° ESE 06:14:46 10° NE
CENTAUR R/B 3.7 06:04:27 14° W 06:09:26 35° NNW 06:16:08 10° NE
Cosmos 2341 Rocket 4.0 06:04:19 10° NNW 06:10:33 67° W 06:16:41 10° S
CZ-4B R/B 4.5 06:06:55 10° NNE 06:11:26 71° ESE 06:15:56 10° S
CZ-4B R/B 3.4 06:09:13 10° N 06:12:27 32° WNW 06:14:46 16° WSW
IRS-1C Rocket 4.3 06:07:55 10° N 06:13:02 52° WNW 06:18:06 10° SW
CZ-2D R/B 4.1 06:11:04 10° NNW 06:13:39 14° NW 06:15:59 11° WNW
Cosmos 1844 Rocket 2.8 06:08:45 10° NW 06:14:09 50° WSW 06:19:30 10° S
Meteor 1-19 Rocket 4.2 06:09:43 10° SSW 06:15:22 81° WNW 06:21:09 10° N
Cosmos 1812 4.4 06:15:17 15° W 06:16:20 17° WNW 06:18:55 10° NNW
Cosmos 1570 Rocket 4.0 06:12:15 10° SSW 06:17:26 65° WNW 06:22:39 10° NNE
Resurs 1-4 Rocket 4.1 06:15:55 10° NNW 06:17:39 12° NW 06:19:23 10° WNW
Cosmos 990 Rocket 4.3 06:13:51 10° NNW 06:19:05 72° ENE 06:24:14 10° SSE
Cosmos 1898 Rocket 3.4 06:14:26 10° NNW 06:19:39 71° WSW 06:24:48 10° SSE
Cosmos 2218 Rocket 4.2 06:13:23 10° N 06:19:51 80° E 06:26:12 10° SSE
Okean O Rocket 2.4 06:16:54 10° N 06:20:52 32° WNW 06:24:46 10° SW
Cosmos 2278 Rocket 2.2 06:19:02 10° NNW 06:24:45 89° WSW 06:30:26 10° SSE
Cosmos 2360 Rocket 2.8 06:21:29 13° WSW 06:26:12 39° NW 06:31:31 10° NNE
Cosmos 468 Rocket 4.5 06:21:30 10° S 06:26:38 65° ESE 06:31:50 10° NNE
Cosmos 1980 Rocket 4.3 06:26:39 10° NW 06:28:50 12° NNW 06:31:01 10° N
Cosmos 405 Rocket 3.4 06:25:30 10° S 06:29:31 63° E 06:33:30 10° NNE
Cosmos 1340 4.1 06:27:50 12° WSW 06:30:15 21° WNW 06:33:13 10° NNW
ATLAS 3B R/B 4.4 06:24:40 10° NW 06:30:37 28° NNE 06:36:20 10° ENE
Okean-O 2.6 06:26:47 10° NNE 06:31:14 79° WNW 06:35:40 10° SSW
Cosmos 1666 3.2 06:29:35 10° NNW 06:33:12 38° W 06:36:49 10° SSW
Meteor 2-4 Rocket 3.6 06:27:59 10° SSW 06:33:36 79° WNW 06:39:05 10° N
Cosmos 2237 Rocket 3.1 06:28:52 10° S 06:34:22 52° ESE 06:39:53 10° NE
Feng Yun 1-1 Rocket 4.4 06:28:53 10° NNE 06:34:49 84° WNW 06:40:35 10° SSW
Cosmos 2228 4.0 06:31:09 10° N 06:35:24 53° ENE 06:39:39 10° SSE
COSMO-SKYMED 1 2.6 06:31:16 10° SSE 06:35:36 89° WSW 06:39:59 10° NNW
Cosmos 1743 3.8 06:32:29 10° NW 06:35:37 23° W 06:38:43 10° SW
Meteor 1-31 Rocket 2.8 06:32:35 10° N 06:36:22 60° WNW 06:40:06 10° SSW
Cosmos 2297 4.4 06:31:48 10° NNW 06:37:32 60° ENE 06:43:12 10° SE
CZ-4C R/B 3.7 06:32:14 10° NW 06:38:50 51° NE 06:46:14 10° ESE
Cosmos 1726 Rocket 3.6 06:34:33 10° N 06:39:01 88° W 06:43:29 10° S
ADEOS II 3.0 06:41:20 10° N 06:45:53 30° WNW 06:50:25 10° WSW
ATLAS 5 CENTAUR R/B 2.5 06:40:58 10° NW 06:46:47 61° SW 06:53:08 10° SSE
Cosmos 1025 Rocket 3.1 06:43:29 10° SSW 06:47:49 61° WNW 06:52:12 10° N
Cosmos 2285 Rocket 4.1 06:42:50 10° SSW 06:49:17 86° WNW 06:55:47 10° NNE
Cosmos 1892 Rocket 3.8 06:46:13 10° S 06:50:33 78° E 06:54:56 10° NNE
Cosmos 2333 Rocket 2.3 06:45:11 10° SSW 06:50:54 87° ESE 06:56:42 10° NNE
Cosmos 1937 Rocket 3.7 06:46:41 10° NNW 06:51:53 54° WSW 06:57:02 10° S
